sat.trackr.live / text

‹ back to catalog

STARLINK-36230

NORAD 67075 · 2025-298A

PAYLOAD ACTIVE UNKNOWN

§ Identity

Operator
Country
US
Launch date
2025-12-14
Launch site
AFWTR
Launch vehicle
Mass (kg)
RCS (m²)

Purposes: comms

External: N2YO · Heavens-Above · Gunter

§ Orbital elements

Epoch: 2026-05-25T01:13:19.436160Z

Period
96.11 min
Inclination
70.0009°
Eccentricity
0.0002955
Mean motion
14.98348215 rev/d
Perigee alt
569.9 km
Apogee alt
574.1 km
Semi-major
6,950.1 km
B*
3.0988e-4
RAAN
181.9992°
Arg perigee
273.4451°
Mean anomaly
86.6370°
Rev number
2,465

§ Raw data

STARLINK-362301 67075U 25298A   26145.05091940  .00003608  00000+0  30988-3 0  99942 67075  70.0009 181.9992 0002955 273.4451  86.6370 14.98348215 24651

JSON: /api/v1/satellites/67075 · /tle

For live sub-satellite position, see the globe view (requires WebGL).

§ Visibility from observer

Set your observer location to see the next 7 days of passes ≥ 10°. The values pass through the URL so the page stays shareable.

No JS? Fill the form by hand. The geolocation button needs JavaScript.